When you browse on this site, cookies collect data to enhance your experience and personalize the content and advertising you see.
Visit our Privacy Policy to learn more. By continuing to use the site, you agree to this use of cookies and data.
  • En España
  • Lista de países
  • Para 7 días
  • Temperatura del agua
  • El tiempo en el mapa
  • Informadores
  • user-avatar
    Iniciar sesión

    Tiempo cada hora Maripasoula

    Hoy, 5 Abril, Domingo

    Tiempo Temperatura Precipitaciones Viento Presión Humedad
    00:00 +25°C° 0 mm 1 mps 746 mmHg 98%
    01:00 +25°C° 0 mm 1 mps 746 mmHg 98%
    02:00 +22°C° 0 mm 0 mps 745 mmHg 99%
    03:00 +22°C° 0 mm 0 mps 745 mmHg 99%
    04:00 +22°C° 0 mm 0 mps 746 mmHg 99%
    05:00 +22°C° 0 mm 0 mps 746 mmHg 99%
    06:00 +25°C° 0 mm 1 mps 746 mmHg 93%
    07:00 +27°C° 0 mm 1 mps 747 mmHg 88%
    08:00 +28°C° 0 mm 1 mps 747 mmHg 82%
    09:00 +30°C° 0 mm 1 mps 747 mmHg 74%
    10:00 +31°C° 0 mm 1 mps 747 mmHg 67%
    11:00 +32°C° 0 mm 2 mps 747 mmHg 59%
    12:00 +34°C° 0 mm 2 mps 746 mmHg 59%
    13:00 +34°C° 0 mm 2 mps 745 mmHg 58%
    14:00 +34°C° 0 mm 2 mps 744 mmHg 58%
    15:00 +32°C° 0 mm 1 mps 744 mmHg 62%
    16:00 +32°C° 0 mm 1 mps 744 mmHg 67%
    17:00 +31°C° 0 mm 1 mps 744 mmHg 72%
    18:00 +29°C° 0.1 mm 1 mps 745 mmHg 79%
    19:00 +28°C° 0.1 mm 1 mps 746 mmHg 86%
    20:00 +26°C° 0.1 mm 1 mps 746 mmHg 92%
    21:00 +26°C° 0 mm 1 mps 746 mmHg 94%
    22:00 +26°C° 0 mm 1 mps 747 mmHg 95%
    23:00 +25°C° 0 mm 1 mps 747 mmHg 97%

    Mañana, 6 Abril, Lunes

    Tiempo Temperatura Precipitaciones Viento Presión Humedad
    00:00 +25°C° 0 mm 1 mps 747 mmHg 97%
    01:00 +25°C° 0 mm 1 mps 746 mmHg 98%
    02:00 +24°C° 0 mm 1 mps 746 mmHg 98%
    03:00 +24°C° 0 mm 1 mps 746 mmHg 98%
    04:00 +22°C° 0 mm 0 mps 746 mmHg 99%
    05:00 +22°C° 0 mm 0 mps 746 mmHg 99%
    06:00 +26°C° 0 mm 1 mps 747 mmHg 90%
    07:00 +28°C° 0 mm 1 mps 747 mmHg 81%
    08:00 +29°C° 0 mm 2 mps 748 mmHg 72%
    09:00 +31°C° 0 mm 2 mps 748 mmHg 67%
    10:00 +32°C° 0 mm 2 mps 747 mmHg 63%
    11:00 +34°C° 0 mm 2 mps 747 mmHg 58%
    12:00 +34°C° 0.3 mm 2 mps 746 mmHg 60%
    13:00 +34°C° 0.3 mm 2 mps 745 mmHg 62%
    14:00 +34°C° 0.3 mm 2 mps 744 mmHg 63%
    15:00 +32°C° 1.1 mm 1 mps 744 mmHg 73%
    16:00 +30°C° 1.1 mm 1 mps 744 mmHg 83%
    17:00 +28°C° 1.1 mm 1 mps 744 mmHg 93%
    18:00 +28°C° 0.2 mm 1 mps 745 mmHg 95%
    19:00 +27°C° 0.2 mm 1 mps 746 mmHg 96%
    20:00 +26°C° 0.2 mm 1 mps 747 mmHg 98%
    21:00 +26°C° 0 mm 1 mps 747 mmHg 98%
    22:00 +25°C° 0 mm 1 mps 747 mmHg 98%
    23:00 +25°C° 0 mm 1 mps 748 mmHg 98%

    Pasado mañana, 7 Abril, Martes

    Tiempo Temperatura Precipitaciones Viento Presión Humedad
    00:00 +25°C° 0 mm 1 mps 747 mmHg 98%
    01:00 +24°C° 0 mm 1 mps 747 mmHg 99%
    02:00 +22°C° 0 mm 0 mps 746 mmHg 99%
    03:00 +22°C° 0 mm 0 mps 746 mmHg 99%
    04:00 +22°C° 0 mm 0 mps 746 mmHg 99%
    05:00 +22°C° 0 mm 0 mps 746 mmHg 98%
    06:00 +25°C° 0 mm 1 mps 747 mmHg 94%
    07:00 +27°C° 0 mm 1 mps 747 mmHg 90%
    08:00 +28°C° 0 mm 2 mps 748 mmHg 85%
    09:00 +30°C° 0.1 mm 2 mps 748 mmHg 77%
    10:00 +32°C° 0.1 mm 2 mps 747 mmHg 68%
    11:00 +35°C° 0.1 mm 2 mps 747 mmHg 60%
    12:00 +34°C° 1.2 mm 2 mps 746 mmHg 68%
    13:00 +32°C° 1.2 mm 2 mps 745 mmHg 77%
    14:00 +31°C° 1.2 mm 2 mps 744 mmHg 86%
    15:00 +30°C° 0.9 mm 2 mps 744 mmHg 86%
    16:00 +30°C° 0.9 mm 1 mps 744 mmHg 86%
    17:00 +29°C° 0.9 mm 1 mps 744 mmHg 87%
    18:00 +28°C° 0.2 mm 1 mps 745 mmHg 89%
    19:00 +28°C° 0.2 mm 1 mps 746 mmHg 92%
    20:00 +27°C° 0.2 mm 1 mps 746 mmHg 95%
    21:00 +26°C° 0 mm 1 mps 746 mmHg 96%
    22:00 +26°C° 0 mm 1 mps 747 mmHg 96%
    23:00 +25°C° 0 mm 1 mps 747 mmHg 97%

    8 Abril, Miércoles

    Tiempo Temperatura Precipitaciones Viento Presión Humedad
    00:00 +25°C° 0 mm 1 mps 746 mmHg 96%
    01:00 +25°C° 0 mm 1 mps 746 mmHg 96%
    02:00 +23°C° 0 mm 0 mps 745 mmHg 96%
    03:00 +23°C° 0.1 mm 0 mps 745 mmHg 96%
    04:00 +23°C° 0.1 mm 0 mps 745 mmHg 96%
    05:00 +23°C° 0.1 mm 0 mps 745 mmHg 95%
    06:00 +26°C° 0.1 mm 1 mps 746 mmHg 94%
    07:00 +26°C° 0.1 mm 1 mps 746 mmHg 93%
    08:00 +27°C° 0.1 mm 1 mps 747 mmHg 91%
    09:00 +29°C° 0.1 mm 1 mps 747 mmHg 81%
    10:00 +31°C° 0.1 mm 1 mps 747 mmHg 70%
    11:00 +32°C° 0.1 mm 2 mps 747 mmHg 59%
    12:00 +32°C° 0.1 mm 1 mps 746 mmHg 62%
    13:00 +32°C° 0.1 mm 1 mps 745 mmHg 65%
    14:00 +32°C° 0.1 mm 1 mps 744 mmHg 67%
    15:00 +31°C° 0.3 mm 1 mps 744 mmHg 70%
    16:00 +31°C° 0.3 mm 1 mps 744 mmHg 73%
    17:00 +30°C° 0.3 mm 1 mps 744 mmHg 76%
    18:00 +29°C° 0.2 mm 1 mps 745 mmHg 83%
    19:00 +27°C° 0.2 mm 1 mps 745 mmHg 90%
    20:00 +26°C° 0.2 mm 1 mps 746 mmHg 97%
    21:00 +26°C° 0 mm 1 mps 746 mmHg 97%
    22:00 +25°C° 0 mm 1 mps 746 mmHg 98%
    23:00 +25°C° 0 mm 1 mps 747 mmHg 98%

    9 Abril, Jueves

    Tiempo Temperatura Precipitaciones Viento Presión Humedad
    00:00 +25°C° 0 mm 1 mps 746 mmHg 98%
    01:00 +24°C° 0 mm 1 mps 746 mmHg 98%
    02:00 +22°C° 0 mm 0 mps 745 mmHg 99%
    03:00 +22°C° 0 mm 0 mps 745 mmHg 99%
    04:00 +22°C° 0 mm 0 mps 745 mmHg 99%
    05:00 +22°C° 0 mm 0 mps 745 mmHg 99%
    06:00 +23°C° 0 mm 0 mps 746 mmHg 93%
    07:00 +27°C° 0 mm 1 mps 746 mmHg 88%
    08:00 +28°C° 0 mm 1 mps 747 mmHg 83%
    09:00 +30°C° 0.1 mm 1 mps 746 mmHg 74%
    10:00 +32°C° 0.1 mm 1 mps 746 mmHg 64%
    11:00 +35°C° 0.1 mm 2 mps 746 mmHg 55%
    12:00 +34°C° 0.8 mm 2 mps 745 mmHg 63%
    13:00 +32°C° 0.8 mm 1 mps 744 mmHg 71%
    14:00 +31°C° 0.8 mm 1 mps 743 mmHg 79%
    15:00 +30°C° 1.1 mm 1 mps 744 mmHg 84%
    16:00 +29°C° 1.1 mm 1 mps 744 mmHg 89%
    17:00 +28°C° 1.1 mm 1 mps 744 mmHg 93%
    18:00 +27°C° 0.4 mm 1 mps 744 mmHg 95%
    19:00 +26°C° 0.4 mm 1 mps 745 mmHg 97%
    20:00 +25°C° 0.4 mm 1 mps 746 mmHg 98%
    21:00 +25°C° 0 mm 1 mps 746 mmHg 98%
    22:00 +25°C° 0 mm 1 mps 746 mmHg 99%
    23:00 +25°C° 0 mm 1 mps 746 mmHg 99%

    10 Abril, Viernes

    Tiempo Temperatura Precipitaciones Viento Presión Humedad
    00:00 +25°C° 0 mm 1 mps 746 mmHg 99%
    01:00 +24°C° 0 mm 1 mps 746 mmHg 99%
    02:00 +22°C° 0 mm 0 mps 745 mmHg 99%
    03:00 +22°C° 0 mm 0 mps 745 mmHg 99%
    04:00 +22°C° 0 mm 0 mps 746 mmHg 99%
    05:00 +22°C° 0 mm 0 mps 746 mmHg 99%
    06:00 +25°C° 0 mm 1 mps 746 mmHg 96%
    07:00 +26°C° 0 mm 1 mps 747 mmHg 92%
    08:00 +27°C° 0 mm 1 mps 747 mmHg 89%
    09:00 +28°C° 0.1 mm 1 mps 747 mmHg 82%
    10:00 +29°C° 0.1 mm 2 mps 747 mmHg 74%
    11:00 +30°C° 0.1 mm 2 mps 747 mmHg 67%
    12:00 +30°C° 0.1 mm 2 mps 746 mmHg 65%
    13:00 +31°C° 0.1 mm 2 mps 746 mmHg 62%
    14:00 +31°C° 0.1 mm 2 mps 745 mmHg 60%
    15:00 +31°C° 0 mm 1 mps 745 mmHg 64%
    16:00 +30°C° 0 mm 1 mps 745 mmHg 68%
    17:00 +29°C° 0 mm 1 mps 745 mmHg 72%
    18:00 +28°C° 0 mm 1 mps 745 mmHg 76%
    19:00 +27°C° 0 mm 1 mps 746 mmHg 80%
    20:00 +26°C° 0 mm 1 mps 746 mmHg 84%
    21:00 +26°C° 0 mm 1 mps 746 mmHg 87%
    22:00 +25°C° 0 mm 1 mps 747 mmHg 90%
    23:00 +24°C° 0 mm 1 mps 747 mmHg 93%
    Mostrar más